Location: Elmsmere
(40.9284°N, 73.8207°W)
Time: 06:09:13
(UTC+00:00)

CZ-4 R/B - Pass Details

Date: 29 October 2020
Orbit: 532 x 598 km, 97.7° (Epoch: 27 November)

Event Time Altitude Azimuth Distance (km) Brightness Sun altitude
Rises 23:45:25 0° 176° (S) 2,700 4.8 -21.5°
Reaches altitude 10° 23:47:35 10° 181° (S) 1,803 3.9 -21.9°
Maximum altitude 23:51:24 55° 259° (W) 651 1.9 -22.6°
Drops below altitude 10° 23:55:12 10° 339° (NNW) 1,795 4.2 -23.4°
Sets 23:57:21 0° 343° (NNW) 2,687 5.1 -23.8°
